Hourly Weather Minsk

Today, 12 May, Wednesday

Time Temperature Precipitation Wind Pressure Humidity
00:00 +10°C° 0 mm 3 mps 745 mmHg 91%
01:00 +10°C° 0 mm 3 mps 745 mmHg 92%
02:00 +10°C° 0 mm 3 mps 745 mmHg 93%
03:00 +10°C° 0 mm 3 mps 745 mmHg 94%
04:00 +10°C° 0 mm 3 mps 745 mmHg 96%
05:00 +10°C° 0 mm 3 mps 745 mmHg 97%
06:00 +11°C° 0 mm 4 mps 745 mmHg 88%
07:00 +12°C° 0 mm 5 mps 746 mmHg 79%
08:00 +13°C° 0 mm 6 mps 746 mmHg 70%
09:00 +14°C° 0 mm 6 mps 746 mmHg 64%
10:00 +14°C° 0 mm 6 mps 746 mmHg 59%
11:00 +15°C° 0 mm 7 mps 745 mmHg 53%
12:00 +15°C° 0 mm 6 mps 745 mmHg 52%
13:00 +16°C° 0 mm 6 mps 745 mmHg 52%
14:00 +16°C° 0 mm 6 mps 744 mmHg 52%
15:00 +16°C° 0 mm 5 mps 744 mmHg 53%
16:00 +16°C° 0 mm 5 mps 744 mmHg 55%
17:00 +17°C° 0 mm 4 mps 743 mmHg 56%
18:00 +16°C° 0 mm 3 mps 743 mmHg 61%
19:00 +13°C° 0 mm 3 mps 743 mmHg 66%
20:00 +12°C° 0 mm 2 mps 742 mmHg 71%
21:00 +12°C° 0 mm 2 mps 742 mmHg 74%
22:00 +11°C° 0 mm 1 mps 741 mmHg 76%
23:00 +9°C° 0 mm 0 mps 740 mmHg 78%

Tomorrow, 13 May, Thursday

Time Temperature Precipitation Wind Pressure Humidity
00:00 +10°C° 0.9 mm 1 mps 740 mmHg 83%
01:00 +10°C° 0.9 mm 1 mps 740 mmHg 88%
02:00 +9°C° 0.9 mm 2 mps 739 mmHg 94%
03:00 +9°C° 1.8 mm 2 mps 739 mmHg 95%
04:00 +8°C° 1.8 mm 2 mps 738 mmHg 96%
05:00 +8°C° 1.8 mm 3 mps 738 mmHg 97%
06:00 +8°C° 0.9 mm 3 mps 738 mmHg 96%
07:00 +8°C° 0.9 mm 3 mps 738 mmHg 96%
08:00 +8°C° 0.9 mm 3 mps 738 mmHg 95%
09:00 +8°C° 0.7 mm 3 mps 738 mmHg 94%
10:00 +8°C° 0.7 mm 3 mps 738 mmHg 94%
11:00 +8°C° 0.7 mm 3 mps 738 mmHg 93%
12:00 +9°C° 0.3 mm 3 mps 738 mmHg 91%
13:00 +9°C° 0.3 mm 3 mps 738 mmHg 88%
14:00 +10°C° 0.3 mm 3 mps 738 mmHg 86%
15:00 +10°C° 0.4 mm 3 mps 737 mmHg 87%
16:00 +10°C° 0.4 mm 3 mps 737 mmHg 88%
17:00 +10°C° 0.4 mm 3 mps 737 mmHg 88%
18:00 +10°C° 0.1 mm 3 mps 737 mmHg 89%
19:00 +8°C° 0.1 mm 4 mps 737 mmHg 90%
20:00 +8°C° 0.1 mm 4 mps 737 mmHg 91%
21:00 +8°C° 0.7 mm 4 mps 736 mmHg 92%
22:00 +8°C° 0.7 mm 5 mps 736 mmHg 93%
23:00 +8°C° 0.7 mm 5 mps 736 mmHg 94%

Day after tomorrow, 14 May, Friday

Time Temperature Precipitation Wind Pressure Humidity
00:00 +8°C° 1 mm 5 mps 736 mmHg 94%
01:00 +8°C° 1 mm 6 mps 735 mmHg 94%
02:00 +8°C° 1 mm 6 mps 735 mmHg 94%
03:00 +8°C° 0.1 mm 6 mps 735 mmHg 94%
04:00 +8°C° 0.1 mm 6 mps 735 mmHg 94%
05:00 +8°C° 0.1 mm 6 mps 735 mmHg 94%
06:00 +9°C° 0 mm 6 mps 735 mmHg 94%
07:00 +9°C° 0 mm 6 mps 735 mmHg 94%
08:00 +10°C° 0 mm 6 mps 735 mmHg 93%
09:00 +10°C° 0.2 mm 6 mps 735 mmHg 94%
10:00 +10°C° 0.2 mm 5 mps 735 mmHg 95%
11:00 +10°C° 0.2 mm 5 mps 735 mmHg 96%
12:00 +12°C° 0.1 mm 5 mps 735 mmHg 91%
13:00 +13°C° 0.1 mm 5 mps 735 mmHg 86%
14:00 +15°C° 0.1 mm 5 mps 735 mmHg 81%
15:00 +15°C° 0.1 mm 4 mps 735 mmHg 78%
16:00 +17°C° 0.1 mm 4 mps 735 mmHg 76%
17:00 +18°C° 0.1 mm 3 mps 735 mmHg 73%
18:00 +16°C° 0.4 mm 3 mps 735 mmHg 78%
19:00 +14°C° 0.4 mm 3 mps 735 mmHg 84%
20:00 +14°C° 0.4 mm 2 mps 735 mmHg 90%
21:00 +13°C° 0.5 mm 2 mps 735 mmHg 91%
22:00 +13°C° 0.5 mm 2 mps 735 mmHg 93%
23:00 +13°C° 0.5 mm 2 mps 734 mmHg 95%

15 May, Saturday

Time Temperature Precipitation Wind Pressure Humidity
00:00 +13°C° 0.1 mm 2 mps 734 mmHg 95%
01:00 +13°C° 0.1 mm 2 mps 734 mmHg 95%
02:00 +13°C° 0.1 mm 2 mps 734 mmHg 95%
03:00 +12°C° 0 mm 2 mps 734 mmHg 95%
04:00 +12°C° 0 mm 2 mps 735 mmHg 95%
05:00 +12°C° 0 mm 2 mps 735 mmHg 96%
06:00 +12°C° 0 mm 2 mps 735 mmHg 92%
07:00 +12°C° 0 mm 3 mps 735 mmHg 88%
08:00 +13°C° 0 mm 3 mps 735 mmHg 84%
09:00 +14°C° 0 mm 3 mps 736 mmHg 78%
10:00 +16°C° 0 mm 3 mps 736 mmHg 72%
11:00 +18°C° 0 mm 3 mps 736 mmHg 66%
12:00 +18°C° 0.1 mm 3 mps 736 mmHg 66%
13:00 +18°C° 0.1 mm 3 mps 736 mmHg 67%
14:00 +17°C° 0.1 mm 3 mps 736 mmHg 67%
15:00 +17°C° 0.1 mm 3 mps 736 mmHg 70%
16:00 +17°C° 0.1 mm 3 mps 736 mmHg 73%
17:00 +17°C° 0.1 mm 2 mps 736 mmHg 76%
18:00 +15°C° 0.2 mm 2 mps 736 mmHg 81%
19:00 +13°C° 0.2 mm 3 mps 737 mmHg 86%
20:00 +12°C° 0.2 mm 3 mps 737 mmHg 91%
21:00 +12°C° 0.1 mm 3 mps 737 mmHg 91%
22:00 +11°C° 0.1 mm 3 mps 737 mmHg 92%
23:00 +11°C° 0.1 mm 3 mps 737 mmHg 92%

16 May, Sunday

Time Temperature Precipitation Wind Pressure Humidity
00:00 +10°C° 0 mm 2 mps 738 mmHg 92%
01:00 +9°C° 0 mm 2 mps 738 mmHg 93%
02:00 +9°C° 0 mm 2 mps 738 mmHg 93%
03:00 +8°C° 0 mm 2 mps 739 mmHg 92%
04:00 +9°C° 0 mm 1 mps 739 mmHg 92%
05:00 +9°C° 0 mm 1 mps 739 mmHg 92%
06:00 +11°C° 0 mm 1 mps 739 mmHg 86%
07:00 +12°C° 0 mm 1 mps 740 mmHg 80%
08:00 +14°C° 0 mm 1 mps 740 mmHg 74%
09:00 +15°C° 0 mm 1 mps 740 mmHg 69%
10:00 +18°C° 0 mm 1 mps 740 mmHg 65%
11:00 +18°C° 0 mm 2 mps 740 mmHg 60%
12:00 +18°C° 0 mm 2 mps 740 mmHg 60%
13:00 +19°C° 0 mm 2 mps 740 mmHg 59%
14:00 +19°C° 0 mm 2 mps 740 mmHg 58%
15:00 +19°C° 0.2 mm 2 mps 739 mmHg 62%
16:00 +19°C° 0.2 mm 2 mps 739 mmHg 66%
17:00 +19°C° 0.2 mm 3 mps 739 mmHg 70%
18:00 +17°C° 1 mm 3 mps 739 mmHg 76%
19:00 +16°C° 1 mm 3 mps 738 mmHg 81%
20:00 +14°C° 1 mm 3 mps 738 mmHg 86%
21:00 +15°C° 1.3 mm 2 mps 738 mmHg 89%
22:00 +14°C° 1.3 mm 2 mps 738 mmHg 93%
23:00 +13°C° 1.3 mm 1 mps 738 mmHg 96%

17 May, Monday

Time Temperature Precipitation Wind Pressure Humidity
00:00 +13°C° 0.7 mm 1 mps 738 mmHg 97%
01:00 +13°C° 0.7 mm 2 mps 738 mmHg 97%
02:00 +13°C° 0.7 mm 2 mps 738 mmHg 98%
03:00 +13°C° 0 mm 2 mps 738 mmHg 97%
04:00 +13°C° 0 mm 2 mps 738 mmHg 97%
05:00 +13°C° 0 mm 2 mps 738 mmHg 97%
06:00 +13°C° 0 mm 3 mps 738 mmHg 95%
07:00 +13°C° 0 mm 3 mps 738 mmHg 92%
08:00 +14°C° 0 mm 4 mps 738 mmHg 90%
09:00 +15°C° 0.2 mm 4 mps 738 mmHg 86%
10:00 +17°C° 0.2 mm 4 mps 738 mmHg 81%
11:00 +18°C° 0.2 mm 4 mps 738 mmHg 77%
12:00 +18°C° 0.3 mm 4 mps 738 mmHg 78%
13:00 +18°C° 0.3 mm 4 mps 739 mmHg 78%
14:00 +18°C° 0.3 mm 3 mps 739 mmHg 78%
15:00 +18°C° 0.1 mm 3 mps 739 mmHg 76%
16:00 +18°C° 0.1 mm 2 mps 738 mmHg 73%
17:00 +18°C° 0.1 mm 2 mps 738 mmHg 71%
18:00 +17°C° 0 mm 2 mps 738 mmHg 75%
19:00 +16°C° 0 mm 2 mps 738 mmHg 80%
20:00 +14°C° 0 mm 1 mps 738 mmHg 84%
21:00 +14°C° 0 mm 2 mps 738 mmHg 86%
22:00 +13°C° 0 mm 2 mps 738 mmHg 88%
23:00 +13°C° 0 mm 2 mps 738 mmHg 90%
Show more